Wetbulb
60.70 60.52 60.54 60.36 60.36 60.38 60.32 60.45 60.82 60.95 61.05 61.27 61.67 61.83 61.89 62.01 61.58 62.50 58.40 65.13 71.26 77.57 77.94 69.70 69.25 72.86 73.16 68.79 67.56 67.08 57.68 55.30 58.06 60.46 62.18 64.84 63.27 66.12 69.02 66.47 67.75 68.59 67.20 69.21 70.73
60.41 60.20 60.26 59.91 60.22 60.20 60.43 60.46 60.72 60.72 60.62 60.93 61.35 61.72 61.94 61.94 59.94 58.51 69.65 75.08 74.33 77.45 67.73 64.08 63.48 64.41 64.63 65.21 65.03 62.97 58.00 59.38 63.44 63.73 63.26 64.61 64.78 65.44 65.10 65.71 65.33 66.35 69.56 71.03 71.08
59.66 59.59 59.58 59.24 59.66 59.77 59.96 60.21 60.29 60.49 60.06 60.32 60.94 61.69 61.88 61.30 58.70 57.63 75.33 75.98 74.98 75.58 63.68 62.64 63.53 62.97 60.91 62.90 63.06 63.30 59.83 63.38 64.63 65.70 66.47 65.39 65.37 66.74 64.43 63.56 65.46 64.89 67.12 69.40 69.58
58.87 58.68 58.80 58.54 58.47 59.14 59.30 59.66 59.72 59.74 59.60 60.08 60.91 61.78 62.02 59.21 52.19 59.11 72.44 73.76 75.33 68.51 62.65 61.52 62.44 60.07 58.78 59.63 63.27 61.88 64.89 65.09 65.94 66.63 64.45 62.88 66.75 64.93 65.38 65.91 68.51 68.30 68.77 69.33 68.65
58.29 58.27 58.42 58.41 58.46 58.82 59.11 59.22 59.04 59.20 59.44 60.22 61.34 62.09 58.59 56.22 55.95 63.34 74.48 74.24 70.69 65.55 61.15 60.29 60.04 60.88 59.91 61.54 62.40 61.10 64.07 65.44 66.75 65.37 64.46 65.34 63.57 64.07 65.13 68.25 69.09 68.93 69.13 68.44 68.76
58.16 57.99 57.99 58.11 58.19 58.48 58.64 58.43 58.25 58.67 59.26 60.47 62.06 62.23 58.58 53.28 61.14 63.23 66.06 68.04 65.34 64.02 62.53 61.91 61.29 62.82 62.47 61.68 60.64 64.81 64.58 61.92 65.53 65.39 65.18 63.94 64.33 65.04 65.97 68.20 67.92 67.91 67.07 67.89 68.97
57.62 57.58 57.56 57.48 57.72 58.01 57.83 57.55 57.88 58.20 59.35 61.00 62.90 61.72 55.73 53.94 60.03 59.27 61.46 59.72 64.08 63.22 61.37 63.64 64.26 61.73 61.63 61.31 65.13 63.27 60.92 60.13 61.91 63.85 62.28 65.68 62.03 62.73 66.29 67.63 66.39 66.63 66.68 67.49 67.62
57.33 57.39 57.06 56.96 57.10 57.16 56.74 56.57 57.10 58.32 60.36 61.83 63.37 57.29 52.21 60.40 60.10 58.24 56.89 60.07 61.65 62.03 63.12 64.50 64.71 61.84 59.94 63.52 63.34 60.27 59.56 54.01 61.71 64.01 63.12 62.10 56.19 63.83 66.07 65.97 64.90 66.17 66.76 67.14 67.41
56.73 56.45 56.28 56.29 56.27 56.14 55.60 55.89 57.93 60.53 61.74 62.65 57.47 53.34 53.42 61.61 53.31 55.82 54.52 55.86 59.45 60.55 60.85 65.09 62.72 58.74 59.95 56.43 55.52 57.53 53.06 54.63 57.77 62.71 61.95 60.22 53.87 61.57 65.95 65.45 64.67 65.54 65.54 66.21 67.55
56.22 55.82 55.65 55.75 55.57 55.11 54.68 56.28 59.99 60.69 61.47 62.09 60.78 52.47 55.48 55.06 54.67 56.08 55.86 56.79 57.25 58.73 59.17 58.59 57.19 54.78 55.37 53.78 50.60 52.85 53.68 56.57 55.36 58.70 61.11 60.27 59.96 63.22 65.07 65.26 65.04 65.46 65.46 65.86 66.18
55.52 55.31 55.21 55.10 54.91 54.23 52.64 55.93 55.37 53.94 52.85 54.81 53.08 53.83 54.15 56.68 55.87 54.31 55.82 55.10 55.92 55.25 51.68 56.57 52.28 50.87 54.28 56.64 57.38 56.96 55.68 55.21 57.80 60.99 60.18 58.41 55.35 58.78 65.04 63.03 64.71 64.71 65.12 65.45 65.89
55.29 55.08 54.87 54.64 54.09 53.81 52.50 54.65 54.88 55.26 50.57 56.81 58.33 58.69 58.07 56.60 50.19 53.53 53.76 50.11 52.30 50.89 53.28 52.43 51.81 55.96 58.14 58.05 58.57 58.09 55.65 55.37 59.53 61.60 59.71 57.15 54.22 57.36 63.08 62.68 64.38 64.65 65.18 65.94 66.65
54.81 54.65 54.17 53.70 53.37 54.97 57.68 58.35 59.45 58.05 49.76 53.32 55.33 54.63 56.32 55.53 51.35 52.56 53.25 51.28 49.57 50.17 51.78 49.70 54.29 58.63 57.45 56.17 55.69 56.95 55.04 55.51 56.51 59.00 57.86 58.23 54.83 55.42 58.87 61.05 63.84 65.69 66.27 66.56 66.24
54.85 54.59 53.81 52.62 53.20 56.26 57.08 59.59 59.67 58.78 44.89 49.50 50.60 53.47 54.79 54.91 51.19 56.79 56.05 51.36 49.30 48.15 51.83 51.35 55.22 56.43 55.59 55.00 54.40 51.12 57.21 57.38 57.86 53.62 50.45 55.45 48.44 54.74 58.35 61.69 63.37 63.95 65.01 65.77 66.95
54.87 54.54 52.97 51.52 49.71 54.48 59.46 60.75 59.39 55.92 37.26 53.84 50.80 56.79 54.05 50.70 50.37 51.74 56.45 51.78 47.66 49.95 49.65 49.70 52.52 53.19 53.44 55.14 56.56 53.79 58.03 57.26 57.62 52.03 48.74 51.06 49.20 52.85 57.65 56.01 59.13 59.58 63.77 65.37 67.16
54.50 53.68 52.63 54.86 50.95 56.86 61.30 60.85 57.23 44.33 40.22 49.35 51.93 49.44 48.27 50.49 51.35 52.88 51.42 52.20 52.54 49.25 49.96 50.54 55.10 54.82 54.35 56.66 56.58 57.97 55.68 54.48 52.53 50.09 43.85 49.23 49.04 49.61 54.47 57.55 59.72 60.39 61.91 63.69 64.86
52.97 52.24 51.00 54.46 54.83 57.86 59.14 56.56 44.41 40.36 51.57 49.08 48.60 50.66 49.07 47.17 48.93 50.17 48.46 46.31 45.44 41.14 43.12 47.77 49.63 51.62 52.97 49.73 54.26 52.95 49.82 43.11 42.75 43.28 42.32 50.28 49.92 51.39 58.34 60.99 60.63 60.49 62.47 64.23 62.45
51.35 50.79 52.26 54.34 57.36 58.64 58.02 49.56 41.23 49.50 47.88 51.72 50.27 50.21 47.37 48.53 47.69 48.40 46.25 44.44 47.32 45.68 42.45 42.67 42.37 48.64 52.95 48.90 49.22 49.81 48.94 43.32 39.18 40.83 44.19 51.75 46.84 51.90 60.07 61.42 61.86 62.77 62.28 64.90 63.49
50.57 56.47 56.69 58.27 57.26 58.18 52.73 43.63 44.76 49.52 51.40 49.84 50.06 47.96 47.21 49.47 48.62 47.44 45.92 45.45 47.02 47.12 42.73 41.25 43.65 51.71 52.50 52.67 51.85 48.63 45.53 49.35 44.10 45.87 42.15 47.71 51.42 55.48 59.09 60.43 62.06 62.29 63.04 63.53 66.61
51.49 56.25 59.07 62.69 61.79 57.93 49.49 43.78 48.07 51.88 52.68 51.32 45.90 48.39 45.31 47.81 48.07 46.13 45.53 48.40 48.02 50.28 48.36 45.98 41.04 48.74 50.44 52.41 51.23 49.85 50.81 43.52 43.58 39.50 38.22 43.46 47.72 48.74 55.10 57.22 59.40 59.41 63.52 64.30 68.24
55.01 56.25 60.60 62.19 61.07 54.56 46.91 48.33 51.79 54.84 53.89 50.26 48.17 47.00 47.37 47.52 49.68 48.96 47.04 48.96 50.67 50.20 50.44 47.29 44.63 45.48 47.87 45.28 47.02 46.54 45.23 46.58 43.67 42.06 38.90 38.39 44.52 56.80 55.77 56.85 57.30 58.67 66.34 67.38 68.61
56.76 54.14 61.36 61.62 52.01 52.98 49.68 52.66 51.70 54.24 54.70 51.85 51.54 49.36 47.89 49.05 47.90 48.74 48.58 48.97 53.23 51.56 47.14 48.43 43.70 41.94 44.74 49.81 50.72 49.87 47.66 46.28 40.81 40.65 42.06 41.72 44.89 60.90 57.94 58.40 59.32 61.78 66.97 68.62 69.83
52.41 57.48 61.36 59.15 48.57 50.74 53.89 54.16 54.45 53.51 52.70 51.96 50.66 51.19 50.82 48.07 45.62 50.05 51.17 54.84 54.73 50.34 46.44 49.33 44.59 39.29 41.90 45.28 47.19 46.73 47.75 45.71 45.41 43.36 40.85 39.47 46.73 60.51 59.69 59.78 61.15 61.02 66.17 68.88 69.09
54.17 54.52 56.53 56.88 55.74 52.53 51.14 51.39 51.29 54.82 53.35 53.10 51.51 51.42 51.35 49.38 49.99 48.43 50.17 53.79 55.05 53.12 62.40 54.64 42.79 40.92 38.69 42.91 45.96 46.15 48.82 48.46 45.06 40.82 41.92 43.62 52.06 57.03 57.00 57.76 58.17 60.38 66.13 68.31 68.34
56.31 54.30 54.10 51.34 52.25 53.75 54.62 53.28 51.96 51.14 54.59 54.82 53.34 51.05 49.80 47.04 49.40 49.42 51.09 54.49 58.15 60.91 52.66 48.13 42.02 42.60 45.23 47.18 48.42 47.20 47.72 48.89 45.90 45.42 42.29 44.78 53.81 56.91 57.84 58.04 58.84 61.65 64.11 67.67 67.66
49.48 48.77 51.57 50.41 53.62 53.77 52.73 53.08 53.51 53.49 55.38 53.31 53.46 55.08 54.68 50.44 51.39 49.21 52.17 52.22 53.39 57.27 54.76 48.52 43.34 47.35 44.77 48.44 47.90 47.02 48.10 47.77 48.14 49.17 47.35 47.38 47.28 60.31 60.44 60.48 62.60 64.81 64.14 67.18 67.82
54.74 53.61 51.46 50.06 52.20 51.64 51.70 54.50 54.43 56.25 57.18 57.34 56.28 54.65 53.04 54.44 55.50 55.11 54.87 53.61 53.77 52.76 53.62 52.06 45.13 43.52 40.19 46.89 47.02 43.51 46.81 47.42 48.11 48.71 48.64 45.32 48.49 52.17 59.71 61.06 61.17 61.48 62.29 67.37 68.04
MSLP
1015.17 1014.66 1014.18 1013.73 1013.16 1012.80 1012.32 1011.83 1011.25 1010.77 1010.24 1009.86 1009.22 1008.71 1008.21 1007.50 1006.02 1005.39 1004.30 1002.16 1001.30 1001.58 1002.36 1002.17 1001.74 1001.36 1000.73 999.76 999.93 999.09 1000.55 1001.64 1001.93 1002.05 1002.45 1002.53 1002.96 1003.17 1003.87 1005.29 1006.32 1006.80 1008.03 1009.20 1009.96
1015.24 1014.85 1014.35 1013.81 1013.25 1012.71 1012.18 1011.72 1011.02 1010.55 1010.11 1009.53 1009.13 1008.62 1008.06 1007.71 1006.61 1004.30 1001.80 1001.41 1000.64 1001.98 1002.25 1001.77 1001.13 1000.37 1000.55 999.12 999.39 999.27 1000.50 1001.18 1001.30 1001.62 1001.87 1002.17 1002.64 1002.95 1003.70 1005.01 1006.56 1007.60 1008.71 1009.34 1009.92
1015.31 1014.89 1014.45 1013.92 1013.23 1012.60 1012.00 1011.47 1010.90 1010.28 1009.90 1009.48 1008.97 1008.38 1008.03 1007.79 1006.44 1002.34 1000.76 1001.08 1001.11 1001.66 1001.65 1001.51 1000.96 1000.17 999.86 999.55 999.81 999.63 1000.38 1000.82 1000.88 1001.07 1001.30 1001.73 1002.26 1002.73 1003.70 1004.91 1005.75 1007.03 1008.26 1009.05 1009.69
1015.55 1014.97 1014.43 1013.89 1013.30 1012.64 1011.99 1011.28 1010.77 1010.08 1009.49 1009.34 1008.75 1008.21 1007.83 1007.54 1004.78 1001.14 1001.13 1000.99 1001.63 1001.66 1001.52 1001.18 1000.46 1000.20 1000.17 999.80 999.35 999.75 1000.26 1000.45 1000.78 1000.86 1001.21 1001.72 1002.20 1002.82 1003.22 1004.34 1005.16 1006.26 1007.47 1008.27 1009.32
1015.57 1015.16 1014.56 1013.92 1013.19 1012.44 1011.71 1011.08 1010.53 1009.96 1009.38 1009.00 1008.65 1008.21 1007.08 1006.30 1002.79 1000.58 1000.90 1000.94 1001.41 1001.51 1001.36 1000.96 1000.43 1000.03 1000.00 999.67 999.91 1001.97 1000.34 1000.45 1000.62 1001.11 1001.60 1002.08 1002.61 1003.08 1003.72 1004.42 1005.21 1006.05 1007.13 1007.74 1008.29
1015.49 1015.02 1014.41 1013.70 1012.95 1012.24 1011.60 1010.99 1010.19 1009.63 1009.17 1008.81 1008.44 1008.25 1007.58 1004.73 1000.27 1000.32 1000.48 1000.77 1000.37 1000.87 1000.55 999.91 999.60 998.96 999.25 999.47 999.82 1000.83 1001.17 1002.14 1001.27 1001.62 1002.00 1002.50 1003.15 1003.44 1004.15 1004.59 1005.38 1006.13 1006.60 1007.33 1007.91
1015.32 1014.70 1014.08 1013.46 1012.82 1012.09 1011.37 1010.62 1009.87 1009.22 1008.89 1008.58 1008.29 1007.92 1006.44 1002.81 999.90 999.82 999.76 999.90 999.75 999.83 999.99 999.02 998.92 998.79 999.00 1000.04 1000.63 1001.43 1002.52 1002.28 1002.80 1003.51 1002.80 1003.25 1004.20 1004.38 1004.50 1004.81 1005.60 1006.20 1006.65 1006.82 1007.04
1015.26 1014.57 1013.83 1013.08 1012.36 1011.72 1010.98 1010.19 1009.28 1008.67 1008.36 1008.23 1008.06 1007.55 1004.89 1000.40 1000.00 1000.11 999.53 999.53 999.34 999.13 999.31 998.82 998.57 998.76 999.07 1000.32 1000.68 1001.98 1003.94 1005.72 1004.36 1004.81 1005.29 1004.10 1004.81 1005.01 1005.02 1005.13 1005.53 1005.91 1006.14 1006.44 1006.81
1015.14 1014.47 1013.75 1012.94 1012.17 1011.45 1010.55 1009.43 1008.45 1007.81 1007.73 1007.81 1007.74 1006.85 1003.29 1000.10 999.85 999.50 999.49 999.60 999.38 999.14 999.03 998.72 998.74 999.09 999.38 999.86 1002.01 1002.95 1004.72 1005.52 1005.35 1004.31 1006.03 1006.51 1007.22 1006.25 1005.72 1006.12 1006.03 1005.82 1005.99 1006.22 1006.46
1014.95 1014.22 1013.44 1012.62 1011.92 1011.21 1010.05 1008.18 1007.48 1007.39 1007.15 1007.04 1006.55 1005.80 1002.13 999.90 999.16 999.09 999.16 999.42 999.55 999.28 999.25 999.31 999.57 999.59 999.89 1000.36 1001.52 1002.24 1002.96 1004.46 1004.81 1004.21 1005.18 1008.12 1008.31 1007.94 1006.31 1005.75 1005.97 1005.79 1005.40 1005.99 1006.42
1014.85 1014.10 1013.25 1012.31 1011.42 1011.33 1010.18 1008.06 1007.56 1007.42 1006.51 1005.07 1004.11 1002.51 1000.45 999.40 998.64 998.78 998.87 999.19 999.46 999.59 999.79 999.54 1000.11 999.88 999.56 999.52 999.64 1001.12 1002.04 1002.80 1003.29 1003.09 1005.68 1005.97 1006.41 1005.49 1004.25 1004.88 1005.17 1005.27 1005.21 1005.46 1006.11
1014.80 1014.04 1013.15 1012.04 1010.91 1010.50 1010.88 1008.87 1006.39 1005.72 1004.65 1003.53 1002.51 1001.69 1000.35 999.59 999.03 998.89 999.01 999.68 999.71 1000.04 999.96 999.94 999.42 999.29 998.85 998.62 999.36 999.75 1000.56 1001.47 1001.69 1000.99 1002.81 1005.43 1005.78 1005.62 1005.25 1005.17 1005.14 1004.73 1004.86 1005.13 1005.80
1014.66 1013.88 1013.05 1011.84 1010.45 1009.29 1008.70 1006.76 1005.28 1004.84 1004.52 1001.68 1000.73 1000.25 999.63 999.37 999.07 998.82 999.04 999.36 999.89 1000.07 1000.04 999.92 998.96 998.51 998.19 997.82 998.00 998.29 999.61 999.97 1000.29 1000.13 1000.44 1003.72 1006.90 1007.49 1006.34 1005.54 1005.82 1005.49 1004.04 1004.37 1005.22
1014.52 1013.79 1013.09 1011.79 1010.47 1009.27 1007.38 1005.42 1005.06 1004.78 1004.22 1000.47 999.01 998.50 999.00 999.06 998.67 998.53 998.52 999.05 999.45 999.65 999.76 999.29 998.54 997.91 997.57 997.33 997.06 997.38 997.29 997.61 998.59 999.70 1000.81 1001.21 1005.51 1006.74 1005.57 1005.39 1005.68 1005.74 1004.11 1004.03 1004.66
1014.24 1013.61 1012.97 1013.25 1011.81 1009.56 1006.76 1005.74 1005.19 1004.99 1003.31 998.00 997.67 996.90 997.53 998.37 997.98 997.51 997.66 998.48 998.74 999.09 999.28 998.80 998.12 997.61 997.13 996.70 996.46 996.55 996.46 997.08 998.13 999.24 1000.25 1001.43 1004.25 1005.04 1004.98 1003.69 1004.68 1003.92 1005.39 1004.82 1004.58
1013.89 1013.50 1012.98 1011.74 1011.74 1008.32 1006.71 1005.88 1005.38 1005.03 1001.55 998.11 997.78 997.60 997.93 998.22 998.35 997.92 997.93 997.97 998.11 998.82 998.70 998.32 997.37 997.04 996.59 996.13 996.04 996.16 996.56 997.30 998.26 999.68 1001.04 1002.15 1003.66 1004.97 1004.85 1003.60 1003.58 1003.35 1004.21 1005.66 1006.89
1013.13 1012.98 1013.16 1011.82 1009.25 1007.37 1006.90 1006.13 1005.77 1003.66 999.44 998.25 997.88 997.61 998.18 998.42 998.57 998.53 998.42 998.31 998.42 998.99 998.85 998.50 997.53 996.64 996.24 996.30 995.95 996.22 997.34 998.56 999.99 1000.76 1001.76 1001.91 1003.49 1004.09 1003.35 1002.85 1002.66 1003.62 1003.68 1005.34 1006.37
1012.10 1011.74 1010.70 1009.91 1008.38 1007.84 1007.15 1006.57 1005.17 1002.00 1000.25 998.50 997.29 997.45 997.94 998.02 998.32 998.23 998.39 998.39 998.22 998.64 999.06 998.97 997.97 996.88 995.95 996.07 996.32 996.52 997.58 998.92 1000.25 1001.26 1002.07 1002.37 1004.02 1003.55 1002.95 1003.00 1003.40 1003.11 1003.14 1004.54 1005.51
1011.31 1009.86 1009.34 1007.68 1008.16 1008.12 1007.77 1006.41 1003.67 1001.80 1000.71 999.27 998.08 997.68 997.96 997.71 997.81 998.06 998.05 998.11 997.94 998.36 998.89 998.51 997.57 996.45 995.78 995.56 995.90 996.68 997.28 998.22 999.68 1000.55 1001.81 1002.88 1004.51 1004.13 1003.66 1002.77 1000.93 1001.87 1002.48 1003.92 1004.66
1011.51 1009.49 1007.12 1005.95 1006.73 1007.14 1007.22 1005.60 1003.72 1002.10 1000.64 999.89 999.61 998.97 998.90 998.65 997.84 997.39 997.51 997.14 997.25 997.38 997.58 997.84 998.10 996.50 995.63 995.28 995.38 996.05 997.06 998.28 999.28 1000.91 1001.88 1001.88 1003.24 1002.84 1003.51 1002.91 1001.24 1001.22 1000.65 1001.94 1003.76
1011.04 1008.70 1005.84 1005.55 1006.08 1006.78 1006.48 1004.90 1003.05 1001.36 1000.08 1000.10 1000.24 1000.05 999.89 999.47 998.59 997.51 996.47 996.13 996.18 996.29 996.61 997.38 997.79 996.74 996.32 995.54 995.52 996.05 996.82 998.01 999.15 1000.31 1001.42 1001.79 1002.09 1001.00 1001.98 1002.04 1001.55 1001.08 1000.57 1001.33 1002.38
1010.62 1007.73 1005.57 1005.56 1006.29 1005.94 1005.22 1003.98 1002.41 1001.25 1000.23 1000.21 1000.37 1000.50 1000.31 999.81 999.12 998.26 996.96 995.93 995.46 995.00 996.01 996.43 996.92 997.20 996.18 995.17 994.98 994.92 996.04 997.18 998.97 999.94 1000.21 1000.90 1001.12 1000.54 1001.33 1000.55 1000.23 1000.65 1000.37 1000.89 1001.90
1011.66 1007.72 1005.44 1005.57 1005.91 1005.37 1004.21 1003.14 1001.91 1001.03 1000.75 1000.82 1000.83 1000.74 1000.57 1000.36 999.96 998.75 997.52 996.35 995.56 994.86 996.11 996.42 996.34 997.28 996.70 995.84 994.87 995.21 995.40 996.17 997.42 998.41 999.47 1000.42 1000.83 1000.64 1000.81 1000.89 1000.43 1000.07 1000.77 1001.26 1002.54
1012.11 1008.15 1006.23 1005.92 1005.56 1005.36 1004.33 1002.98 1001.93 1001.06 1000.90 1001.16 1001.30 1001.29 1001.19 1000.94 1000.25 999.46 998.17 997.07 996.37 995.58 995.76 996.17 996.91 997.71 997.68 996.83 995.95 995.56 995.11 995.61 996.49 997.90 998.62 998.82 999.74 1000.22 1000.42 1000.42 1000.74 1001.10 1000.86 1001.53 1002.55
1011.59 1009.35 1008.72 1007.04 1006.21 1005.40 1004.26 1003.47 1002.72 1001.93 1001.41 1001.38 1001.69 1001.92 1002.13 1002.10 1001.51 1000.55 999.05 998.27 997.23 996.22 996.00 996.59 997.47 997.69 997.64 997.30 996.30 995.53 995.28 995.11 995.60 996.14 997.06 997.62 998.65 999.49 999.00 999.49 999.92 1001.10 1001.13 1001.62 1002.38
1012.66 1011.76 1010.14 1008.83 1007.09 1005.87 1004.70 1004.19 1003.43 1002.56 1002.50 1002.31 1002.42 1002.82 1003.29 1003.73 1003.68 1002.15 1000.42 999.63 998.73 997.95 997.93 997.21 997.91 998.28 998.34 997.54 996.61 995.66 994.74 994.41 994.47 994.61 995.05 995.60 996.30 996.79 997.53 999.48 999.80 999.54 1000.64 1001.77 1001.87
1013.76 1012.95 1011.80 1009.44 1007.82 1006.77 1005.60 1004.69 1004.07 1003.69 1003.30 1003.57 1003.55 1003.85 1003.62 1004.04 1003.58 1002.81 1001.14 1000.08 999.62 999.38 998.88 998.51 998.53 998.96 998.89 997.87 996.91 996.08 994.71 994.13 994.01 993.84 994.13 994.85 994.76 994.93 996.23 998.20 998.78 998.28 999.16 1000.64 1001.98
Wind_Speed
18 18 18 19 20 20 20 20 20 19 19 18 18 17 17 19 22 4 6 6 5 13 2 7 10 13 18 14 10 4 7 7 6 5 5 10 11 5 16 19 14 5 17 18 20
18 19 19 20 20 20 20 20 20 20 20 19 17 17 16 16 5 8 6 10 11 11 4 7 11 17 6 13 6 11 8 9 10 10 6 12 9 7 9 19 19 21 20 21 21
20 20 20 21 21 21 21 20 20 21 20 19 17 17 15 12 5 9 11 11 7 6 3 5 10 10 11 2 5 8 10 6 9 12 10 11 9 9 17 20 23 27 24 23 20
19 21 21 22 23 22 22 21 21 21 22 18 18 16 16 4 2 2 9 8 8 5 4 7 9 8 9 5 8 17 13 10 9 5 7 10 11 9 8 19 23 24 25 22 19
20 19 20 21 22 22 22 22 21 21 21 19 16 13 6 3 11 6 8 8 6 5 6 8 14 17 4 6 21 24 12 10 8 12 11 12 8 6 17 19 20 19 23 20 19
20 20 20 21 22 23 22 22 22 21 20 18 14 13 3 5 4 10 8 8 10 8 7 13 12 15 5 5 11 15 20 15 4 12 11 11 7 6 13 18 19 17 13 17 21
21 21 22 22 22 23 23 23 23 22 19 15 10 6 5 16 7 4 10 6 8 9 9 15 10 9 8 10 14 22 11 10 6 9 3 8 8 5 13 16 16 14 12 13 11
21 22 23 24 24 24 24 24 25 23 17 11 5 4 9 7 14 12 8 8 9 11 9 12 10 8 5 10 15 15 13 7 7 8 11 6 6 6 11 15 14 13 12 11 10
21 22 23 24 25 24 25 28 25 19 12 8 4 4 11 3 6 9 6 9 10 9 9 12 8 5 11 8 4 1 7 8 12 14 8 6 9 10 7 11 11 12 9 8 8
22 23 24 25 24 24 28 27 9 9 5 7 8 5 7 9 8 10 10 12 9 8 9 8 6 6 7 6 4 4 4 10 11 16 18 16 30 23 7 13 13 10 9 8 6
22 23 25 26 27 20 16 7 2 2 2 8 7 7 13 8 5 7 8 6 6 8 6 9 5 9 14 15 9 6 5 8 17 16 6 23 26 31 23 6 14 13 11 11 10
22 24 25 27 29 24 5 3 6 6 10 12 20 20 21 10 2 7 2 3 7 9 8 6 13 14 17 19 6 18 14 10 7 12 15 18 23 23 17 7 7 14 15 14 13
23 24 25 28 31 10 6 11 5 8 5 11 19 12 16 8 8 11 11 9 9 9 12 11 14 15 19 19 14 12 17 16 16 10 3 16 4 5 12 11 7 11 17 14 15
22 23 23 29 4 8 6 7 8 7 4 9 9 10 13 10 11 13 14 12 9 13 13 11 13 19 17 15 7 6 11 4 7 5 4 4 4 7 4 5 15 7 9 14 18
22 22 22 8 8 5 9 11 8 3 4 8 5 7 8 10 6 9 16 8 13 11 8 12 17 15 16 17 11 12 9 6 3 4 1 5 8 7 7 6 7 5 4 8 20
22 20 19 3 4 10 13 12 5 1 8 4 6 7 6 12 16 8 7 8 10 11 12 13 10 14 14 17 14 9 4 8 6 2 3 6 8 6 4 9 4 5 3 4 11
24 18 8 7 5 10 11 6 1 5 10 8 6 9 9 9 12 14 12 10 10 6 11 12 15 11 9 10 15 6 3 4 6 5 7 7 8 9 12 13 6 10 11 1 4
27 22 8 8 9 8 5 2 4 11 8 16 1 9 11 11 11 11 9 8 9 8 5 10 12 10 14 9 9 9 8 7 7 4 4 3 6 7 14 7 1 11 19 13 18
29 3 4 6 11 6 2 4 5 3 16 14 14 3 6 6 8 12 13 12 10 11 12 7 10 15 14 15 5 9 6 8 6 9 1 6 4 9 3 6 8 8 30 23 12
3 4 7 10 12 4 2 6 7 13 17 9 9 7 12 15 12 8 11 13 9 13 10 14 8 16 14 14 9 11 8 5 5 5 6 7 10 8 10 8 5 5 8 17 21
3 3 3 6 4 1 4 7 17 19 12 6 10 13 14 16 17 15 10 6 18 17 15 12 11 23 10 5 14 3 4 5 2 4 4 2 5 10 15 11 14 16 16 24 21
5 3 3 5 2 4 6 7 8 19 11 1 2 9 14 15 14 13 9 6 14 16 12 13 9 11 16 16 9 10 11 10 7 11 4 5 6 13 17 17 15 12 17 20 19
5 4 4 3 3 5 10 13 15 13 8 10 9 10 9 10 9 11 16 18 12 8 4 4 7 6 11 11 9 7 7 6 5 1 6 3 5 10 12 9 9 8 5 17 18
4 3 2 3 5 9 13 11 13 7 8 4 10 11 11 8 11 10 14 14 18 6 2 6 3 3 7 10 6 6 7 8 9 4 5 7 11 12 10 13 8 7 8 15 18
3 4 5 4 8 14 11 10 12 13 13 4 6 7 9 9 12 14 15 12 18 4 1 3 3 5 9 10 15 12 9 10 10 10 6 7 16 19 23 16 8 5 5 14 17
5 5 7 10 12 13 9 7 15 11 10 12 2 12 11 6 12 19 9 7 5 12 12 3 5 4 8 12 13 14 12 10 7 11 8 7 7 22 23 10 9 13 9 12 19
6 5 4 9 9 11 10 6 10 12 9 10 7 4 10 12 17 21 13 8 10 9 15 7 3 2 8 9 10 9 8 8 9 5 7 7 11 5 14 24 22 22 18 18 17
Wind_Direction
356 353 349 346 342 339 338 332 331 328 326 322 321 319 320 322 311 170 250 230 216 159 164 281 244 245 271 251 237 223 65 69 73 103 102 88 84 68 126 144 166 145 135 152 147
353 350 346 343 339 336 333 330 327 326 325 324 321 318 322 330 292 258 225 166 231 134 214 290 307 307 223 250 329 91 74 75 96 99 121 122 142 153 122 124 118 122 129 139 151
350 346 343 341 337 333 329 328 325 323 322 324 321 317 317 319 296 238 139 174 203 162 260 286 280 286 301 5 227 101 110 91 62 129 145 155 150 130 118 124 140 141 150 155 156
347 343 341 338 334 329 326 325 323 321 321 324 321 316 311 256 242 98 161 188 145 219 277 300 284 304 294 326 72 103 107 106 106 123 92 71 134 86 171 142 140 147 156 160 166
343 341 337 332 329 327 325 322 319 319 318 322 322 322 338 240 251 155 166 185 175 188 221 253 272 278 237 124 87 270 124 120 138 93 84 86 91 94 111 125 127 137 162 169 174
339 337 334 331 328 326 323 319 316 315 315 319 322 316 258 263 180 156 199 175 246 183 257 259 264 290 155 203 106 120 36 7 139 125 141 124 121 111 121 128 136 155 169 175 175
336 334 332 330 326 323 321 317 313 308 308 310 315 297 264 243 302 186 195 236 232 235 246 271 294 348 331 76 62 50 129 11 356 319 156 109 58 126 133 134 145 169 180 182 173
333 331 329 328 325 323 320 315 305 299 294 293 299 280 253 256 242 282 267 251 250 259 257 277 299 327 315 91 69 73 65 357 343 339 318 93 212 169 144 148 157 180 192 174 183
331 329 327 325 323 322 319 309 298 288 271 260 265 220 265 280 220 227 246 256 257 257 278 283 304 299 310 295 92 97 178 195 327 290 279 344 360 302 143 160 175 185 195 174 159
328 327 326 324 322 324 320 298 280 316 219 232 255 311 261 237 232 215 215 235 254 269 237 239 268 270 274 279 243 204 162 181 167 258 240 86 50 332 262 182 187 194 167 167 176
328 326 325 322 319 327 339 343 344 36 244 233 198 242 309 225 335 174 204 211 250 283 257 234 218 240 249 255 148 164 230 188 207 229 75 132 142 212 230 182 190 191 169 173 179
327 327 325 322 316 317 275 261 30 287 296 258 257 255 254 268 261 225 219 263 203 238 266 269 240 238 259 267 208 152 208 227 304 249 127 156 178 194 221 257 221 184 173 184 177
327 327 326 322 316 296 230 277 314 301 278 273 227 233 242 240 219 256 173 210 228 228 240 238 244 243 245 260 271 193 209 213 209 232 304 122 81 171 252 254 322 246 180 187 168
325 326 329 328 324 343 280 13 325 333 298 265 197 223 225 228 258 236 252 178 223 229 226 245 255 253 261 260 273 284 227 237 207 103 194 150 101 182 226 197 184 281 190 192 159
325 325 324 326 305 287 324 327 317 332 310 153 136 176 171 183 229 224 222 235 224 224 227 239 247 262 259 259 254 246 259 295 237 249 337 294 95 273 257 232 338 298 256 325 165
322 323 331 94 207 254 295 300 313 295 250 145 129 183 210 200 225 268 203 217 210 245 263 250 253 242 249 269 276 283 319 321 324 159 33 166 116 276 234 221 243 246 209 0 326
317 312 302 304 238 343 312 303 273 242 316 146 181 179 193 224 217 242 239 226 202 197 247 277 269 274 259 284 281 290 297 332 335 349 227 142 89 217 221 253 225 329 306 18 333
315 309 234 218 245 307 306 315 253 267 267 333 273 181 180 196 215 232 245 213 235 227 228 228 271 258 262 238 220 236 192 159 227 245 240 360 148 244 223 306 175 105 257 274 278
313 157 225 239 214 250 294 254 236 278 332 343 334 240 267 282 212 198 219 237 201 209 228 234 244 248 234 246 194 276 302 231 237 265 334 163 24 341 219 248 200 190 209 218 212
312 278 230 159 179 208 244 271 309 302 292 359 338 356 332 325 274 209 195 218 212 232 207 251 281 272 268 225 238 171 214 305 329 210 255 273 172 203 182 216 238 247 263 183 171
243 262 122 132 156 246 249 269 294 298 329 43 335 321 318 318 325 336 212 224 208 223 218 218 228 268 286 260 206 235 198 256 220 163 179 281 277 178 176 176 205 233 154 157 162
307 257 166 144 174 218 233 246 271 290 314 92 243 286 298 315 324 326 338 258 319 205 217 214 207 241 256 264 243 184 183 187 137 283 230 172 296 157 180 199 191 213 142 155 149
305 259 162 194 260 271 302 275 250 277 337 331 301 303 296 292 314 316 325 317 316 7 58 343 253 240 329 320 329 220 201 192 226 200 254 195 222 178 179 200 223 182 126 134 137
288 300 119 186 244 279 286 307 323 315 259 241 289 311 318 321 314 298 306 307 313 336 120 56 311 168 199 239 254 306 194 206 184 208 246 236 140 184 188 205 208 112 98 129 138
243 342 26 319 335 325 321 344 334 318 326 58 335 274 299 307 314 310 305 340 343 293 301 107 273 312 292 292 294 273 257 229 207 220 199 248 157 187 201 188 175 104 86 137 140
10 349 344 298 295 300 289 355 322 316 18 341 174 329 333 337 352 300 338 339 294 334 335 268 273 294 294 293 297 301 293 295 264 210 227 236 218 192 205 132 150 149 179 188 154
360 336 277 287 306 317 348 311 315 335 349 4 20 5 311 350 317 301 297 306 303 302 309 293 203 222 259 281 305 316 277 289 294 281 196 224 237 188 151 158 179 185 184 183 152